Plymouth, MA

4:02 AM EDT on May 25, 2017 (GMT -0400)
Plymouth Municipal

Weather History for KPYM - October, 2013

Change the Weather History Date:

Tuesday, October 1, 2013

  Actual Average Record
Temperature  
Mean Temperature 58 °F -  
Max Temperature 75 °F 68 °F 84 °F (1986)
Min Temperature 44 °F 44 °F 31 °F (1992)
Degree Days  
Heating Degree Days 6    
Growing Degree Days 8 (Base 50)    
Moisture  
Dew Point 47 °F    
Average Humidity 75    
Maximum Humidity 93    
Minimum Humidity 41    
Precipitation  
Precipitation 0.00 in - - ()
Sea Level Pressure  
Sea Level Pressure 29.92 in    
Wind  
Wind Speed 3 mph (NNW)    
Max Wind Speed 12 mph    
Max Gust Speed 21 mph    
Visibility 9 miles    
Events      
Averages and records for this station are not official NWS values.
T = Trace of Precipitation, MM = Missing Value Source: NWS Daily Summary

Daily Weather History Graph

Daily Weather History Graph

Search for Another Location

Airport or City:

Trip Planner

Search our weather history database for the weather conditions in past years. The results will help you decide how hot, cold, wet, or windy it might be!

Date:

Astronomy

Oct. 01, 2013 Rise Set
Actual Time 6:40 AM EDT 6:24 PM EDT
Civil Twilight 6:12 AM EDT 6:51 PM EDT
Nautical Twilight 5:39 AM EDT 7:24 PM EDT
Astronomical Twilight 5:07 AM EDT 7:56 PM EDT
Moon 3:08 AM EDT (10/1) 4:28 PM EDT (10/1)
Length of Visible Light 12h 39m
Length of Day
11h 44m
Waning Crescent, 12% of the Moon is Illuminated
Oct 1
Waning Crescent
Oct 4
New
Oct 11
First Quarter
Oct 18
Full
Oct 26
Last Quarter

Hourly Weather History & Observations

Time (EDT) Temp. Windchill Dew Point Humidity Pressure Visibility Wind Dir Wind Speed Gust Speed Precip Events Conditions
12:52 AM 45.0 °F 43.5 °F 42.1 °F 90% 29.96 in 10.0 mi West 3.5 mph - N/A   Clear
1:52 AM 45.0 °F - 43.0 °F 93% 29.96 in 10.0 mi Calm Calm - N/A   Clear
2:50 AM 44.6 °F - 41.0 °F 87% 29.94 in 10.0 mi Calm Calm - N/A   Partly Cloudy
2:52 AM 44.1 °F - 41.0 °F 89% 29.94 in 10.0 mi Calm Calm - N/A   Partly Cloudy
3:25 AM 46.4 °F - 42.8 °F 87% 29.93 in 10.0 mi Calm Calm - N/A   Mostly Cloudy
3:47 AM 46.4 °F - 42.8 °F 87% 29.93 in 10.0 mi Calm Calm - N/A   Partly Cloudy
3:52 AM 46.0 °F - 43.0 °F 89% 29.93 in 10.0 mi Calm Calm - N/A   Partly Cloudy
4:52 AM 48.9 °F - 46.0 °F 90% 29.93 in 2.0 mi WNW 5.8 mph - N/A   Mostly Cloudy
5:00 AM 48.2 °F - 46.4 °F 93% 29.93 in 1.5 mi WNW 4.6 mph - N/A   Mostly Cloudy
5:12 AM 48.2 °F - 46.4 °F 93% 29.93 in 3.0 mi WNW 4.6 mph - N/A   Mostly Cloudy
5:25 AM 48.2 °F - 46.4 °F 93% 29.93 in 10.0 mi WNW 3.5 mph - N/A   Scattered Clouds
5:52 AM 50.0 °F - 46.9 °F 89% 29.94 in 10.0 mi WNW 6.9 mph - N/A   Clear
6:52 AM 48.9 °F - 46.0 °F 90% 29.95 in 10.0 mi Calm Calm - N/A   Clear
7:52 AM 52.0 °F - 48.9 °F 89% 29.96 in 10.0 mi NW 5.8 mph - N/A   Clear
8:52 AM 57.9 °F - 51.1 °F 78% 29.95 in 10.0 mi NNW 5.8 mph - N/A   Clear
9:52 AM 64.0 °F - 51.1 °F 63% 29.95 in 10.0 mi Variable 6.9 mph - N/A   Clear
10:52 AM 68.0 °F - 50.0 °F 52% 29.94 in 10.0 mi North 9.2 mph - N/A   Clear
11:52 AM 71.1 °F - 51.1 °F 49% 29.92 in 10.0 mi North 9.2 mph - N/A   Clear
12:52 PM 73.9 °F - 51.1 °F 45% 29.91 in 10.0 mi NW 11.5 mph 20.7 mph N/A   Clear
1:52 PM 73.9 °F - 48.9 °F 41% 29.88 in 10.0 mi NNW 10.4 mph - N/A   Clear
2:52 PM 73.9 °F - 51.1 °F 45% 29.87 in 10.0 mi East 8.1 mph - N/A   Clear
3:52 PM 72.0 °F - 51.1 °F 48% 29.86 in 10.0 mi East 8.1 mph - N/A   Clear
4:52 PM 69.1 °F - 48.0 °F 47% 29.87 in 10.0 mi East 6.9 mph - N/A   Clear
5:52 PM 66.9 °F - 48.9 °F 52% 29.88 in 10.0 mi East 3.5 mph - N/A   Clear
6:52 PM 59.0 °F - 50.0 °F 72% 29.89 in 10.0 mi Calm Calm - N/A   Clear
7:52 PM 53.1 °F - 48.0 °F 83% 29.91 in 10.0 mi Calm Calm - N/A   Clear
8:52 PM 55.9 °F - 48.0 °F 75% 29.91 in 10.0 mi Calm Calm - N/A   Clear
9:52 PM 54.0 °F - 48.0 °F 80% 29.90 in 10.0 mi Calm Calm - N/A   Clear
10:52 PM 54.0 °F - 50.0 °F 86% 29.90 in 10.0 mi Calm Calm - N/A   Clear
11:52 PM 53.1 °F - 48.9 °F 86% 29.90 in 10.0 mi Calm Calm - N/A   Clear